This demonstration page uses our WeatherBlox Daily Observations layout. Learn more.

Left ArrowRight Arrow

Hourly Observations for March 7, 2021

Temp ( °F °C ) Dew Point ( °F °C ) Humidity (%) Winds ( mph kmh ) Pressure ( in mb ) Visibility ( mi km ) Precip ( " mm )
12:53 am 00:53 Mostly Cloudy 51 10.6 29 -1.7 43 43 ESE 6 9 30.31 1026 10 16 0.00 0.00
1:53 am 01:53 Mostly Cloudy 50 10 29 -1.7 44 44 ESE 6 9 30.32 1027 10 16 0.00 0.00
2:53 am 02:53 Mostly Cloudy 49 9.4 29 -1.7 46 46 ESE 6 9 30.31 1026 10 16 0.00 0.00
3:53 am 03:53 Mostly Cloudy 47 8.3 30 -1.1 52 52 ESE 6 9 30.30 1026 10 16 0.00 0.00
4:53 am 04:53 Mostly Cloudy 48 8.9 30 -1.1 50 50 SE 7 11 30.30 1026 10 16 0.00 0.00
5:53 am 05:53 Partly Cloudy 48 8.9 29 -1.7 48 48 ESE 5 7 30.33 1027 10 16 0.00 0.00
6:53 am 06:53 Partly Cloudy 46 7.8 29 -1.7 51 51 E 6 9 30.35 1028 10 16 0.00 0.00
7:53 am 07:53 Mostly Sunny 50 10 30 -1.1 46 46 ESE 8 13 30.38 1029 10 16 0.00 0.00
8:53 am 08:53 Mostly Sunny 54 12.2 30 -1.1 40 40 S 12 19 30.41 1030 10 16 0.00 0.00
9:53 am 09:53 Mostly Sunny 57 13.9 30 -1.1 36 36 SSE 9 15 30.42 1030 10 16 0.00 0.00
10:53 am 10:53 Mostly Sunny 60 15.6 30 -1.1 32 32 SE 14 22 30.42 1030 10 16 0.00 0.00
11:53 am 11:53 Mostly Sunny 63 17.2 30 -1.1 29 29 SE 8 13 30.41 1030 10 16 0.00 0.00
12:53 pm 12:53 Sunny 65 18.3 29 -1.7 26 26 SSE 14 22 30.37 1029 10 16 0.00 0.00
1:53 pm 13:53 Sunny 66 18.9 28 -2.2 24 24 SE 12 19 30.35 1028 10 16 0.00 0.00
2:53 pm 14:53 Mostly Sunny 66 18.9 26 -3.3 22 22 S 13 20 30.33 1027 10 16 0.00 0.00
3:53 pm 15:53 Sunny 67 19.4 27 -2.8 22 22 SSE 13 20 30.31 1027 10 16 0.00 0.00
4:53 pm 16:53 Sunny 66 18.9 25 -3.9 21 21 S 9 15 30.31 1026 10 16 0.00 0.00
5:53 pm 17:53 Sunny 65 18.3 25 -3.9 22 22 SSE 10 17 30.32 1027 10 16 0.00 0.00
6:53 pm 18:53 Mostly Clear 63 17.2 26 -3.3 25 25 SSE 7 11 30.32 1027 10 16 0.00 0.00
7:53 pm 19:53 Clear 62 16.7 27 -2.8 26 26 SSE 6 9 30.33 1027 10 16 0.00 0.00
8:53 pm 20:53 Clear 59 15 28 -2.2 31 31 Calm 30.35 1028 10 16 0.00 0.00
9:53 pm 21:53 Clear 59 15 29 -1.7 32 32 S 8 13 30.36 1028 10 16 0.00 0.00
10:53 pm 22:53 Clear 58 14.4 29 -1.7 33 33 S 6 9 30.37 1028 10 16 0.00 0.00
11:53 pm 23:53 Clear 56 13.3 30 -1.1 37 37 SSE 6 9 30.37 1028 10 16 0.00 0.00

Powered by AerisWeather